#timestamp,LO_Frequency,Hit,StdDev 
1644361215.1,286046997.4,N
1644361235.9,286046996.6,N
1644361255.7,286047000.3,N
1644361275.6,286047001.8,N
1644361295.4,286047004.2,N
1644361315.2,286047002.7,N
1644361335.1,286047000.0,N
1644361336.0,286047000.0,N
1644361355.8,286047000.6,N
1644361375.6,286046998.3,N
1644361395.5,286047002.7,N
1644361415.3,286047000.0,N
1644361435.2,286047002.8,N
1644361455.9,286047000.1,N
1644361475.7,286047000.3,N
1644361495.6,286046998.6,N
1644361515.4,286046998.6,N
1644361535.2,286046998.6,N
1644361555.1,286047001.0,N
1644361556.0,286047001.0,N
1644361575.8,286047001.0,N
1644361595.7,286046998.4,N
1644361615.5,286046996.5,N
1644361635.3,286046998.8,N
1644361655.2,286046996.9,N
1644361675.0,286046996.3,N
1644361675.9,286046996.3,N
1644361695.8,286046993.8,N
1644361715.6,286046995.7,N
1644361735.4,286046999.5,N
1644361755.3,286046998.7,N
1644361775.1,286046999.4,N
1644361795.8,286046999.5,N
1644361815.7,286046999.3,N
1644361835.5,286046995.3,N
1644361855.4,286046999.3,N
1644361875.2,286046996.7,N
1644361895.0,286046996.5,N
1644361895.9,286046996.5,N
1644361915.8,286047002.1,N
1644361935.6,286047001.8,N
1644361955.4,286047002.3,N
1644361975.3,286047000.2,N
1644361995.1,286047001.0,N
1644362015.9,286047001.1,N
1644362035.7,286046996.8,N
1644362055.5,286046996.1,N
1644362075.4,286046994.0,N
1644362095.2,286046997.9,N
1644362115.0,286046997.8,N
1644362115.9,286046997.8,N
1644362135.8,286046997.8,N
1644362155.6,286046996.7,N
1644362175.5,286046998.3,N
1644362195.3,286047005.2,N
1644362215.1,286047003.7,N
1644362235.9,286047001.8,N
1644362255.7,286047000.1,N
1644362275.6,286047001.4,N
1644362295.4,286047004.4,N
1644362315.2,286046999.7,N
1644362335.1,286046998.6,N
1644362336.0,286046998.6,N
1644362355.8,286046999.6,N
1644362375.7,286046997.2,N
1644362395.5,286046999.3,N
1644362415.3,286047001.7,N
1644362435.2,286047001.3,N
1644362455.0,286047001.4,N
1644362455.9,286047001.4,N
1644362475.8,286047000.9,N
1644362495.6,286047000.5,N
1644362515.4,286046999.8,N
1644362535.3,286047000.4,N
1644362555.1,286047000.8,N
1644362575.9,286047000.5,N
1644362595.7,286047000.9,N
1644362615.5,286046997.7,N
1644362635.4,286046995.2,N
1644362655.2,286046993.3,Y
1644362675.0,286046996.0,P
1644362675.9,286046996.0,N
1644362695.8,286046996.0,N
1644362715.6,286046995.1,N
1644362735.5,286046995.0,N
1644362755.3,286046994.9,Y
1644362775.1,286047002.7,P
1644362795.9,286047001.6,N
1644362815.7,286047002.9,N
1644362835.6,286047003.2,N
1644362855.4,286047010.5,Y
1644362875.2,286047006.4,P
1644362895.1,286047006.4,N
1644362896.0,286047006.4,N
1644362915.8,286047006.6,Y
1644362935.7,286047000.6,P
1644362955.5,286046999.9,N
1644362975.3,286047002.4,N
1644362995.2,286047000.8,N
1644363015.9,286047000.7,N
1644363035.7,286046997.4,N
1644363055.6,286047001.2,N
1644363075.4,286046998.2,N
1644363095.3,286046998.5,N
1644363115.1,286046996.5,N
1644363135.8,286046997.3,N
1644363155.7,286046999.6,N
1644363175.5,286047001.2,N
1644363195.4,286047001.0,N
1644363215.2,286047001.2,N
1644363235.0,286047000.6,N
1644363235.9,286047000.6,N
1644363255.8,286046999.9,N
1644363275.6,286046998.6,N
1644363295.4,286046998.4,N
1644363315.3,286046999.0,N
1644363335.1,286046999.2,N
1644363355.9,286046996.6,N
1644363375.7,286047001.1,N
1644363395.5,286046998.1,N
1644363415.4,286047002.6,N
1644363435.2,286047002.0,N
1644363455.0,286046999.7,N
1644363455.9,286046999.7,N
1644363475.8,286047001.7,N
1644363495.6,286047002.7,N
1644363515.5,286047004.3,N
1644363535.3,286047004.2,N
1644363555.1,286047002.0,N
1644363575.9,286047004.6,N
1644363595.7,286047003.5,N
1644363615.5,286047002.6,N
1644363635.4,286047002.7,N
1644363655.2,286047002.3,N
1644363675.1,286047001.5,N
1644363676.0,286047001.5,N
1644363695.8,286047000.3,N
1644363715.6,286046999.4,N
1644363735.5,286046996.6,N
1644363755.3,286046998.0,N
1644363775.2,286046996.3,N
1644363795.9,286046996.4,N
1644363815.7,286046995.8,N
1644363835.6,286046995.6,N
1644363855.4,286046994.4,N
1644363875.2,286046995.6,N
1644363895.1,286046999.2,N
1644363896.0,286046999.2,N
1644363915.8,286046998.9,N
1644363935.7,286047007.6,N
1644363955.5,286047005.0,N
1644363975.3,286047008.2,N
1644363995.2,286047007.3,N
1644364015.0,286047006.3,N
1644364015.9,286047006.3,N
1644364035.8,286047003.0,N
1644364055.6,286047004.0,N
1644364075.4,286047001.5,N
1644364095.3,286047000.4,N
1644364115.1,286046998.6,N
1644364135.8,286046996.6,N
1644364155.7,286047000.8,N
1644364175.5,286047001.3,N
1644364195.4,286047003.1,N
1644364215.2,286047005.3,N
1644364235.0,286047003.8,N
1644364235.9,286047003.8,N
1644364255.8,286047003.8,N
1644364275.6,286047001.4,N
1644364295.4,286047002.1,N
1644364315.3,286047000.9,N
1644364335.1,286047004.3,N
1644364355.9,286047003.9,N
1644364375.7,286047002.1,N
1644364395.5,286047001.7,N
1644364415.4,286047002.7,N
1644364435.2,286047001.5,N
1644364455.0,286047002.3,N
1644364455.9,286047002.3,N
1644364475.8,286047001.8,N
1644364495.6,286047004.0,N
1644364515.5,286047004.2,N
1644364535.3,286047005.8,N
1644364555.1,286047004.1,N
1644364575.9,286047003.3,N
1644364595.7,286047005.9,Y
1644364615.5,286047002.7,P
1644364635.4,286046999.7,N
1644364655.2,286047000.4,N
1644364675.1,286047001.0,N
1644364676.0,286047001.0,N
1644364695.8,286046998.5,N
1644364715.6,286047000.7,N
1644364735.5,286047000.8,N
1644364755.3,286046998.2,N
1644364775.1,286046999.6,N
1644364795.9,286046998.8,N
